Location: Brabourne
(51.1333°N, 1.0000°E)
Time: 20:10:53
(UTC+00:00)

IRS-1D - Pass Details

Date: 29 October 2021
Orbit: 739 x 817 km, 98.6° (Epoch: 04 December)

Event Time Altitude Azimuth Distance (km) Brightness Sun altitude
Rises 02:45:34 0° 14° (NNE) 3,253 7.2 -37.0°
Reaches altitude 10° 02:47:54 10° 14° (NNE) 2,311 6.4 -36.7°
Enters shadow 02:49:03 17° 13° (NNE) 1,862 5.8 -36.5°
